Sauk Centre, MN

6:41 AM CDT on October 16, 2019 (GMT -0500)
Sauk Centre

Weather History for KD39 - August, 2019

Change the Weather History Date:

Monday, August 19, 2019

  Actual Average (KGHW) Record (KGHW)
Temperature  
Mean Temperature 64 °F -  
Max Temperature 79 °F 79 °F 95 °F (1998)
Min Temperature 49 °F 55 °F 39 °F (2004)
Degree Days  
Heating Degree Days 2    
Growing Degree Days 14 (Base 50)    
Moisture  
Dew Point 57 °F    
Average Humidity 79    
Maximum Humidity 95    
Minimum Humidity 56    
Precipitation  
Precipitation 0.00 in - - ()
Sea Level Pressure  
Sea Level Pressure 29.97 in    
Wind  
Wind Speed 4 mph (South)    
Max Wind Speed 14 mph    
Max Gust Speed 21 mph    
Visibility 10 miles    
Events      
Averages and records for this station are not official NWS values.
T = Trace of Precipitation, MM = Missing Value Source: NWS Daily Summary

Daily Weather History Graph

Daily Weather History Graph

Search for Another Location

Airport or City:

Astronomy

Aug. 19, 2019 Rise Set
Actual Time 6:24 AM CDT 8:21 PM CDT
Civil Twilight 5:52 AM CDT 8:53 PM CDT
Nautical Twilight 5:13 AM CDT 9:32 PM CDT
Astronomical Twilight 4:29 AM CDT 10:15 PM CDT
Moon 10:31 PM CDT (8/19) 10:16 AM CDT (8/19)
Length of Visible Light 15h 00m
Length of Day
13h 56m
Waning Gibbous, 85% of the Moon is Illuminated
Aug 19
Waning Gibbous
Aug 23
Last Quarter
Aug 30
New
Sep 5
First Quarter
Sep 13
Full

Hourly Weather History & Observations

Time (CDT) Temp. Dew Point Humidity Pressure Visibility Wind Dir Wind Speed Gust Speed Precip Events Conditions
12:17 AM 52.7 °F 49.8 °F 90% 29.96 in 10.0 mi Calm Calm - N/A   Clear
12:36 AM 52.3 °F 49.5 °F 90% 29.96 in 10.0 mi Calm Calm - N/A   Clear
12:56 AM 50.9 °F 49.3 °F 94% 29.96 in 10.0 mi Calm Calm - N/A   Clear
1:16 AM 52.0 °F 50.0 °F 93% 29.96 in 10.0 mi Calm Calm - N/A   Clear
1:35 AM 50.9 °F 49.1 °F 94% 29.97 in 10.0 mi Calm Calm - N/A   Clear
1:36 AM 50.7 °F 48.9 °F 94% 29.97 in 10.0 mi Calm Calm - N/A   Clear
1:55 AM 50.5 °F 49.3 °F 95% 29.96 in 10.0 mi Calm Calm - N/A   Clear
1:56 AM 50.5 °F 49.3 °F 95% 29.96 in 10.0 mi Calm Calm - N/A   Clear
2:18 AM 50.9 °F 49.5 °F 95% 29.96 in 10.0 mi Calm Calm - N/A   Clear
2:36 AM 50.9 °F 49.1 °F 94% 29.97 in 10.0 mi Calm Calm - N/A   Clear
2:56 AM 50.5 °F 48.9 °F 94% 29.96 in 10.0 mi Calm Calm - N/A   Clear
3:15 AM 50.4 °F 48.7 °F 94% 29.96 in 10.0 mi Calm Calm - N/A   Clear
3:16 AM 50.4 °F 48.7 °F 94% 29.96 in 10.0 mi Calm Calm - N/A   Clear
3:35 AM 50.5 °F 48.6 °F 93% 29.96 in 10.0 mi South 3.5 mph - N/A   Clear
3:39 AM 50.5 °F 48.4 °F 92% 29.96 in 10.0 mi South 3.5 mph - N/A   Clear
3:55 AM 49.8 °F 47.8 °F 93% 29.97 in 10.0 mi South 3.5 mph - N/A   Clear
3:59 AM 49.8 °F 47.8 °F 93% 29.97 in 10.0 mi South 3.5 mph - N/A   Clear
4:17 AM 50.0 °F 47.5 °F 91% 29.97 in 10.0 mi SSE 4.6 mph - N/A   Clear
4:35 AM 50.0 °F 47.7 °F 92% 29.97 in 10.0 mi South 4.6 mph - N/A   Clear
4:55 AM 50.7 °F 48.4 °F 92% 29.97 in 10.0 mi South 3.5 mph - N/A   Clear
4:56 AM 50.7 °F 48.4 °F 92% 29.97 in 10.0 mi South 3.5 mph - N/A   Clear
5:15 AM 51.3 °F 48.2 °F 89% 29.97 in 10.0 mi Calm Calm - N/A   Clear
5:16 AM 51.3 °F 48.2 °F 89% 29.97 in 10.0 mi South 3.5 mph - N/A   Clear
5:35 AM 51.6 °F 48.2 °F 88% 29.97 in 10.0 mi South 3.5 mph - N/A   Clear
5:36 AM 51.6 °F 48.2 °F 88% 29.97 in 10.0 mi SSE 3.5 mph - N/A   Clear
5:58 AM 50.7 °F 48.2 °F 91% 29.98 in 10.0 mi SSE 3.5 mph - N/A   Clear
6:16 AM 51.6 °F 48.7 °F 90% 29.98 in 10.0 mi Calm Calm - N/A   Clear
6:35 AM 51.3 °F 48.4 °F 90% 29.98 in 10.0 mi Calm Calm - N/A   Clear
6:55 AM 51.4 °F 48.6 °F 90% 29.98 in 10.0 mi SSE 3.5 mph - N/A   Clear
6:56 AM 51.4 °F 48.7 °F 90% 29.98 in 10.0 mi Calm Calm - N/A   Clear
7:15 AM 51.3 °F 49.1 °F 92% 29.99 in 10.0 mi South 3.5 mph - N/A   Clear
7:16 AM 51.4 °F 49.3 °F 92% 29.99 in 10.0 mi South 3.5 mph - N/A   Clear
7:35 AM 53.6 °F 51.6 °F 93% 29.99 in 10.0 mi SSE 3.5 mph - N/A   Clear
7:58 AM 55.6 °F 53.1 °F 91% 29.99 in 10.0 mi SSE 4.6 mph - N/A   Clear
8:17 AM 57.9 °F 54.0 °F 87% 29.99 in 10.0 mi South 6.9 mph - N/A   Clear
8:36 AM 59.0 °F 53.8 °F 83% 29.99 in 10.0 mi South 6.9 mph - N/A   Clear
8:55 AM 60.8 °F 54.9 °F 81% 29.99 in 10.0 mi SSW 9.2 mph - N/A   Clear
8:56 AM 61.0 °F 54.9 °F 80% 29.99 in 10.0 mi SSW 9.2 mph - N/A   Clear
9:15 AM 62.4 °F 55.9 °F 79% 29.99 in 10.0 mi South 9.2 mph - N/A   Clear
9:19 AM 63.0 °F 56.1 °F 78% 29.98 in 10.0 mi South 9.2 mph - N/A   Clear
9:36 AM 64.6 °F 56.3 °F 74% 29.99 in 10.0 mi SSW 10.4 mph - N/A   Clear
9:56 AM 66.0 °F 56.8 °F 72% 29.99 in 10.0 mi SSW 9.2 mph - N/A   Clear
10:15 AM 68.0 °F 58.3 °F 71% 29.99 in 10.0 mi South 9.2 mph - N/A   Clear
10:16 AM 68.0 °F 58.1 °F 71% 29.99 in 10.0 mi South 10.4 mph - N/A   Clear
10:35 AM 68.7 °F 58.1 °F 69% 29.99 in 10.0 mi SSW 8.1 mph - N/A   Clear
10:37 AM 68.9 °F 57.9 °F 68% 29.99 in 10.0 mi SSW 10.4 mph - N/A   Clear
10:55 AM 69.8 °F 57.6 °F 65% 29.99 in 10.0 mi South 8.1 mph - N/A   Clear
11:16 AM 71.1 °F 58.5 °F 64% 29.99 in 10.0 mi South 8.1 mph - N/A   Clear
11:36 AM 71.6 °F 58.6 °F 64% 29.99 in 10.0 mi South 8.1 mph - N/A   Clear
11:55 AM 73.0 °F 57.9 °F 59% 29.99 in 10.0 mi SSW 9.2 mph - N/A   Clear
11:56 AM 72.9 °F 57.9 °F 59% 29.99 in 10.0 mi SSW 9.2 mph - N/A   Clear
12:15 PM 73.8 °F 58.6 °F 59% 29.99 in 10.0 mi SSW 9.2 mph - N/A   Clear
12:38 PM 74.5 °F 59.5 °F 60% 29.98 in 10.0 mi SSW 10.4 mph - N/A   Clear
12:58 PM 75.4 °F 59.5 °F 58% 29.98 in 10.0 mi South 11.5 mph - N/A   Clear
1:15 PM 75.6 °F 60.1 °F 59% 29.97 in 10.0 mi South 12.7 mph - N/A   Clear
1:35 PM 76.5 °F 60.6 °F 58% 29.97 in 10.0 mi South 10.4 mph - N/A   Clear
1:36 PM 76.5 °F 60.4 °F 58% 29.97 in 10.0 mi South 11.5 mph - N/A   Clear
1:55 PM 77.0 °F 60.8 °F 57% 29.97 in 10.0 mi SSW 13.8 mph - N/A   Clear
2:17 PM 77.5 °F 60.6 °F 56% 29.97 in 10.0 mi SSW 12.7 mph 17.3 mph N/A   Clear
2:37 PM 77.9 °F 62.1 °F 58% 29.97 in 10.0 mi SSW 9.2 mph 20.7 mph N/A   Clear
2:56 PM 78.1 °F 62.8 °F 59% 29.97 in 10.0 mi South 10.4 mph - N/A   Clear
3:15 PM 78.3 °F 63.0 °F 59% 29.96 in 10.0 mi South 10.4 mph - N/A   Clear
3:16 PM 78.4 °F 63.1 °F 59% 29.96 in 10.0 mi South 10.4 mph - N/A   Clear
3:35 PM 78.8 °F 63.3 °F 59% 29.96 in 10.0 mi SSW 11.5 mph - N/A   Clear
3:39 PM 78.8 °F 63.5 °F 59% 29.96 in 10.0 mi SSW 10.4 mph - N/A   Clear
3:58 PM 78.8 °F 63.9 °F 60% 29.96 in 10.0 mi SSW 9.2 mph - N/A   Clear
4:15 PM 78.8 °F 64.2 °F 61% 29.95 in 10.0 mi South 10.4 mph - N/A   Clear
4:35 PM 78.8 °F 63.9 °F 60% 29.95 in 10.0 mi South 11.5 mph - N/A   Clear
4:36 PM 78.8 °F 63.9 °F 60% 29.95 in 10.0 mi South 11.5 mph - N/A   Clear
4:55 PM 78.8 °F 64.4 °F 61% 29.95 in 10.0 mi South 9.2 mph - N/A   Clear
4:56 PM 78.8 °F 64.4 °F 61% 29.95 in 10.0 mi South 9.2 mph - N/A   Clear
5:18 PM 78.8 °F 65.1 °F 63% 29.94 in 10.0 mi South 10.4 mph - N/A   Clear
5:37 PM 78.3 °F 64.0 °F 61% 29.94 in 10.0 mi South 11.5 mph - N/A   Clear
5:56 PM 78.3 °F 64.8 °F 63% 29.94 in 10.0 mi South 10.4 mph - N/A   Clear
6:15 PM 78.1 °F 65.3 °F 65% 29.94 in 10.0 mi South 12.7 mph - N/A   Clear
6:16 PM 78.1 °F 65.1 °F 64% 29.94 in 10.0 mi South 12.7 mph - N/A   Clear
6:35 PM 77.4 °F 65.1 °F 66% 29.94 in 10.0 mi SSW 9.2 mph - N/A   Clear
6:57 PM 76.6 °F 65.5 °F 68% 29.94 in 10.0 mi South 6.9 mph - N/A   Clear
7:16 PM 75.2 °F 65.7 °F 72% 29.94 in 10.0 mi South 6.9 mph - N/A   Clear
7:35 PM 73.8 °F 66.2 °F 77% 29.95 in 10.0 mi SSE 5.8 mph - N/A   Scattered Clouds
7:36 PM 73.6 °F 66.2 °F 78% 29.95 in 10.0 mi SSE 5.8 mph - N/A   Scattered Clouds
7:55 PM 71.8 °F 66.2 °F 83% 29.95 in 10.0 mi SSE 4.6 mph - N/A   Scattered Clouds
7:56 PM 71.6 °F 66.2 °F 83% 29.95 in 10.0 mi SSE 4.6 mph - N/A   Scattered Clouds
8:18 PM 69.6 °F 65.7 °F 87% 29.95 in 10.0 mi SE 4.6 mph - N/A   Clear
8:36 PM 68.5 °F 64.9 °F 88% 29.95 in 10.0 mi SE 5.8 mph - N/A   Clear
8:56 PM 68.4 °F 65.3 °F 90% 29.96 in 10.0 mi SE 5.8 mph - N/A   Clear
9:15 PM 67.3 °F 64.4 °F 90% 29.96 in 10.0 mi SSE 4.6 mph - N/A   Clear
9:16 PM 67.1 °F 64.4 °F 91% 29.96 in 10.0 mi SSE 4.6 mph - N/A   Clear
9:35 PM 66.6 °F 64.4 °F 93% 29.96 in 10.0 mi SE 5.8 mph - N/A   Clear
9:58 PM 66.6 °F 64.4 °F 93% 29.97 in 10.0 mi SE 5.8 mph - N/A   Clear
10:16 PM 66.2 °F 64.0 °F 93% 29.97 in 10.0 mi SE 4.6 mph - N/A   Clear
10:35 PM 66.2 °F 64.0 °F 93% 29.97 in 10.0 mi SE 4.6 mph - N/A   Clear
10:56 PM 66.0 °F 63.9 °F 93% 29.97 in 10.0 mi SE 3.5 mph - N/A   Clear
11:16 PM 65.7 °F 63.7 °F 93% 29.98 in 10.0 mi SE 4.6 mph - N/A   Clear
11:35 PM 65.5 °F 63.9 °F 94% 29.97 in 10.0 mi SE 5.8 mph - N/A   Clear
11:36 PM 65.5 °F 63.9 °F 94% 29.97 in 10.0 mi SE 5.8 mph - N/A   Clear
11:59 PM 66.0 °F 63.9 °F 93% 29.97 in 10.0 mi SE 5.8 mph - N/A   Clear